Regional Weather Roundup
Issued by NWS

Home | Current Version | Previous Version | Graphics & Text | Print | Product List | Glossary On
Versions: 1 2 3 4 5 6 7 8 9 10 11 12 13 14 15 16 17 18 19 20 21 22 23 24 25 26 27 28 29 30 31 32 33 34 35 36 37 38 39 40 41 42 43 44 45 46 47 48 49 50
000
ASUS43 KLOT 220206
RWRIL

ILLINOIS REGIONAL WEATHER ROUNDUP
NATIONAL WEATHER SERVICE CHICAGO/ROMEOVILLE IL
900 PM CDT TUE OCT 21 2014

NOTE: "FAIR" INDICATES FEW OR NO CLOUDS BELOW 12,000 FEET WITH NO
SIGNIFICANT WEATHER AND/OR OBSTRUCTIONS TO VISIBILITY.

* THESE STATIONS ARE NOT UNDER NWS QUALITY CONTROL. THEY ALSO MAY NOT
  REPORT WEATHER SUCH AS PRECIPITATION OR FOG.

ILZ001-002-007-009-015-016-024-220300-
NORTHWEST ILLINOIS

CITY           SKY/WX    TMP DP  RH WIND       PRES   REMARKS
MOLINE         CLEAR     44  37  76 E8        30.23R
STERLING*      CLEAR     39  34  81 E3        30.25R
SAVANNA*       CLEAR     43  36  76 NE3       30.25R
$$

ILZ003-004-008-010-011-017-018-220300-
NORTH CENTRAL ILLINOIS

CITY           SKY/WX    TMP DP  RH WIND       PRES   REMARKS
ROCKFORD       CLEAR     42  36  79 NE3       30.27S
FREEPORT*      CLEAR     39  35  86 CALM      30.27R
ROCHELLE*      CLEAR     41  37  83 E5        30.26R
DE KALB*       CLEAR     39  35  85 E6        30.26R WCI  35
PERU*          CLEAR     45  38  75 E8        30.26R
$$

ILZ005-006-012>014-019>023-220300-
NORTHEAST ILLINOIS

CITY           SKY/WX    TMP DP  RH WIND       PRES   REMARKS
CHICAGO-OHARE  MOCLDY    47  37  68 N7        30.26R
CHICAGO-MIDWAY CLOUDY    50  39  66 N10       30.25R
AURORA         CLEAR     41  34  76 NE7       30.26R
LANSING*       CLOUDY    49  39  67 N5        30.24R
JOLIET*        CLOUDY    48  38  68 NE8       30.26R
WAUKEGAN       CLOUDY    43  37  79 NW3       30.26R
DUPAGE AIRPORT CLEAR     41  35  79 N5        30.26R
KANKAKEE*      CLOUDY    49  39  69 NE8       30.25R
WHEELING       CLOUDY    47  38  71 N3        30.27R
MORRIS*        CLOUDY    49  41  74 N3        30.25R
ROMEOVILLE*    CLOUDY    47  37  65 NE10G17   30.26R
NORTHERLY ISL    N/A     49  38  65 N6          N/A
$$

LMZ740>746-220300-
SOUTHERN LAKE MICHIGAN

STATION/POSITION SKY/WX   TEMP    WIND        PRES    VSBY  WAVE
                          AIR SEA DIR/SP/G                  HT/PER
                          (F)     (DEG/KT/KT) (MB)    (MI)  (FT/S)
SOUTHERN BUOY              49 54   10/ 14/ 17 1024.5R         5/ 6
WAUKEGAN HARBOR            49      30/ 12/ 16   N/A
HARRISON CRIB              49      10/ 13/ 15   N/A
BURNHAM HARBOR             49      10/  9/ 15   N/A
CALUMET HARBOR             50     340/  8/ 12 1022.9R
MICHIGAN CITY              48      60/  8/ 10   N/A
$$

ILZ025>027-034>036-040-047-049-050-058-095>099-220300-
WEST-CENTRAL ILLINOIS

CITY           SKY/WX    TMP DP  RH WIND       PRES   REMARKS
QUINCY         CLEAR     51  40  65 E7        30.18R
GALESBURG*     CLEAR     45  38  77 E6        30.22R
MACOMB*        CLEAR     43  38  81 E5        30.23R
JACKSONVILLE*  CLEAR     47  39  75 NE5       30.20R
PITTSFIELD*    CLEAR     51  40  67 CALM      30.20R HAZE
$$

ILZ028>032-037-038-041>044-048-051>054-059>061-220300-
CENTRAL ILLINOIS

CITY           SKY/WX    TMP DP  RH WIND       PRES   REMARKS
PONTIAC        CLEAR     41  38  87 NE7       30.25R
BLOOMINGTON    CLEAR     43  40  89 NE8       30.24R
DECATUR        CLEAR     43  40  89 NE7       30.22R
PEORIA         CLEAR     49  39  68 NE10      30.23R
LACON*         CLEAR     44  38  78 E8        30.24R
LINCOLN*       CLEAR     44  38  80 NE3       30.22R
SPRINGFIELD    CLEAR     50  41  71 E9        30.21R
TAYLORVILLE    CLEAR     48  41  76 NE10      30.20S
$$

ILZ033-039-045-046-055>057-062-063-220300-
EAST-CENTRAL ILLINOIS

CITY           SKY/WX    TMP DP  RH WIND       PRES   REMARKS
CHAMPAIGN      CLOUDY    50  40  68 NE14G21   30.23R
DANVILLE*      MOCLDY    47  41  81 N5        30.20R
RANTOUL*       CLOUDY    52  39  61 NE8       30.24R
MATTOON        CLEAR     46  40  79 N7        30.20R
PARIS*         PTCLDY    49  43  80 N3        30.22R
$$

ILZ079-100>102-220300-
SOUTHWEST ILLINOIS

CITY           SKY/WX    TMP DP  RH WIND       PRES   REMARKS
ALTON          CLEAR     52  37  58 NE6       30.19R
BELLEVILLE     CLEAR     53  43  70 NE5       30.17R
CAHOKIA*       CLEAR     53  44  71 NE3       30.18R
SPARTA*        CLEAR     51  43  73 NE3       30.18R
$$

ILZ064>066-069>071-074>076-080>082-084>086-088>090-092>094-220300-
SOUTH-CENTRAL ILLINOIS

CITY           SKY/WX    TMP DP  RH WIND       PRES   REMARKS
CARBONDALE     CLEAR     53  43  68 NE5       30.16R
CAIRO*         CLEAR     58  46  62 NE5       30.15R
EFFINGHAM*     CLEAR     49  39  67 NE3       30.20R
MARION         CLEAR     54  45  71 NE3       30.16R
MT. VERNON     CLEAR     45  37  76 CALM      30.18R
CENTRALIA*     CLEAR     51  40  67 CALM      30.18R
SALEM*         CLEAR     51  43  73 NE5       30.18R
METROPOLIS*    CLEAR     55  46  69 CALM      30.14R
$$

ILZ067-068-072-073-078-083-087-091-220300-
SOUTHEAST ILLINOIS

CITY           SKY/WX    TMP DP  RH WIND       PRES   REMARKS
LAWRENCEVILLE  CLEAR     50  41  71 N9        30.18R
FLORA*         CLEAR     49  40  69 N5        30.19R
FAIRFIELD*     CLEAR     48  41  76 CALM      30.17R
HARRISBURG*    CLEAR     53  42  65 NE6       30.17R
ROBINSON*      CLEAR     50  45  81 N8        30.19R
CARMI*         CLEAR     49  43  80 N5        30.17R
$$

ABBREVIATIONS USED IN REMARKS
   TC - TEMPERATURE IN CELSIUS
  WCI - WIND CHILL INDEX
   HX - HEAT INDEX
  VSB - VISIBILITY
$$




USA.gov is the U.S. government's official web portal to all federal, state and local government web resources and services.